Regional Weather Roundup
Issued by NWS Albany, NY

Home | Current Version | Previous Version | Graphics & Text | Print | Product List | Glossary Off
Versions: 1 2 3 4 5 6 7 8 9 10 11 12 13 14 15 16 17 18 19 20 21 22 23 24 25 26 27 28 29 30 31 32 33 34 35 36 37 38 39 40 41 42 43 44 45 46 47 48 49 50

289
ASUS41 KALY 282310
RWRALY

NEW YORK STATE HOURLY WEATHER ROUNDUP
NATIONAL WEATHER SERVICE ALBANY NY
700 PM EDT TUE MAR 28 2017

NOTE: "FAIR" INDICATES FEW OR NO CLOUDS BELOW 12,000 FEET WITH NO
SIGNIFICANT WEATHER AND/OR NO OBSTRUCTIONS TO VISIBILITY.

NYZ032-033-038>043-046>054-057>066-NYZ062>081-082-084-290000-
EAST


CITY           SKY/WX    TMP DP  RH WIND       PRES   REMARKS
ALBANY         CLOUDY    47  43  86 CALM      29.91R FOG
GLENS FALLS    CLOUDY    47  44  90 NE3       29.91R FOG
POUGHKEEPSIE   LGT RAIN  43  42  97 N3        29.92R FOG
NEWBURGH       LGT RAIN  45  45 100 VRB5      29.92R FOG
MONTGOMERY     LGT RAIN  46  44  93 CALM      29.90R FOG
WHITE PLAINS   LGT RAIN  42  40  92 E6        29.89S VSB 1
ISLIP          FOG       43  43 100 NE9       29.88R VSB 1/8
NEW YORK CITY  LGT RAIN  42  38  85 NE17      29.90R FOG
CENTRAL PARK   LGT RAIN  41  39  93 NE10      29.93R FOG
$$

NYZ005>009-017-018-044>046-055-056-290000-
CENTRAL


CITY           SKY/WX    TMP DP  RH WIND       PRES   REMARKS
FULTON         CLOUDY    42  39  89 N12       30.01R
SYRACUSE       CLOUDY    42  40  92 W8        29.99R
ROME           CLOUDY    43  41  93 NW12      29.97R
ELMIRA         CLOUDY    47  43  86 NE12      29.97R
BINGHAMTON     CLOUDY    45  44  97 N14       29.92R
MONTICELLO     CLOUDY    45  45 100 CALM      29.91R
$$

NYZ026>034-041>043-087-290000-
NORTH


CITY           SKY/WX    TMP DP  RH WIND       PRES   REMARKS
WATERTOWN      CLOUDY    42  38  85 N10       30.03R
FORT DRUM      NOT AVBL
MASSENA        CLOUDY    41  36  82 NW8       30.04R
SARANAC LAKE   CLOUDY    37  37 100 N5        29.94R WCI  33
PLATTSBURGH    CLOUDY    37  35  92 N7        30.00R WCI  32
$$

NYZ001>004-010>016-019>021-085-290000-
WEST


CITY           SKY/WX    TMP DP  RH WIND       PRES   REMARKS
NIAGARA FALLS  CLOUDY    47  37  68 N9        30.06R
BUFFALO        CLOUDY    45  39  79 N10       30.05R
DUNKIRK        CLOUDY    44  38  79 NE3       30.06R
JAMESTOWN      CLOUDY    39  37  93 N10       30.01R WCI  32
WELLSVILLE     CLOUDY    45  43  93 N7        29.99R FOG
ROCHESTER      LGT RAIN  44  42  93 N3        30.04R FOG
PENN YAN       CLOUDY    42  38  85 VRB7      30.01R
$$

             KEY
       WCI = WIND CHILL INDEX
       VSB = VISIBILITY
       HX  = HEAT INDEX
$$




USA.gov is the U.S. government's official web portal to all federal, state and local government web resources and services.